Showing default

EXCITE, 43819

Orbit data source: Space-Track

EXCITE, 43819 is a payload satellite owned by DARPA (US) in SSO that was launched on Mon, 03 Dec 2018 UTC via an FALCON 9 launch vehicle from the Air Force Western Test Range (AFWTR). Payload-class satellites include a variety of spacecraft equipped with specific instruments for various scientific and technological missions. These include communications satellites like Starlink; space stations such as the ISS; scientific satellites like the Hubble; Earth observation satellites from companies like Planet Labs, Umbra, and HawkEye 360; GPS; miniature CubeSats for education and research; and military/defense satellites.

Loading next visibility...
Identifier
43819, 2018-099BP
Orbit
SSO
Country
Flag of USUS
Related business
Manufacturer
NovaWurks
Mission
Operational Defense Technology
Bus & Motor
HISAT, Unknown motor
Mass
~155 kg wet, ~155 kg dry
Launch date (UTC)
2018-12-03 (8 years ago)
Launch vehicle
FALCON 9
Launch site
Air Force Western Test Range (AFWTR)
Object type
Payload
Rocket body
Debris
Shape & HBR
Box, 0.5 m
Radar Cross Section
1.500 m², Large (>1 m²)

Expand to show TLE details & history
Last TLE update: 19 hours ago

TLE from 19 hours ago
0 EXCITE
1 43819U 18099BP  26235.55639459  .00001540  00000-0  10718-3 0  9996
2 43819  97.3931 271.6585 0019819 118.1204 242.2030 15.06742806421894
Epoch: 2026-08-23T13:21Z
TLE epoch observation values (Epoch: 2026-08-23T13:21:12.492Z)
Latitude
-0.00003°
Longitude
99.5057°
Altitude
555.656 km
Speed
7.58 km/s
True Right ascension
18h 06m 38s
True Declination
0° 00' 00"
Sunlit
Object was in full shadow at epoch
Visualization orbit readout
Latitude
Unknown
Longitude
Unknown
Altitude
Unknown
Speed
Unknown
Apparent Right ascension
Unknown
Apparent Declination
Unknown
Sunlit
N/A
Visualization observer readout
Local Sidereal Time
23:04:02
Azimuth
Unknown
Elevation
Unknown
Doppler factor
Unknown
Orbital elements
Apogee altitude
556.861 km
Perigee altitude
529.427 km
Semi-major axis
6,921.281 km
Eccentricity
0.00198
Inclination
97.3931°
RAAN
271.6585°
Arg. of periapsis
118.1204°
True anomaly
242.00233°
Mean anomaly
242.203°
Eccentric anomaly
242.10264°
Mean motion
3.76932 °/min
Orbital period
95.51 mins
BSTAR
0.00010718
Loading maneuver chart data...
Computing Atmospheric mass density...
Loading historical data...
Loading historical data...
Loading historical data...
Loading historical data...
Loading historical data...
Loading historical data...
Loading historical data...

Documentation

Showing up to 5 results
|